Location: Hermaringen
(48.5952°N, 10.2585°E)
Time: 21:51:48
(UTC+00:00)

Altair - Pass Details

Date: 25 February 2026
Orbit: 1502 x 1682 km, 47.2° (Epoch: 10 March)

Event Time Altitude Azimuth Distance (km) Brightness Sun altitude
Exits shadow 00:19:43 11° 90° (E) 3,579 9.5 -49.3°
Drops below altitude 10° 00:20:10 10° 87° (E) 3,670 9.6 -49.3°
Sets 00:24:14 0° 72° (ENE) 4,674 10.4 -49.1°
